STARLINK-1366 (45569 NORAD) Tracking and Keplerian Element Data

This shows tracking and keplerian element data for the satellite.

Feedback or suggestion? Click here.




ElementValue
Catalog45569
NameSTARLINK-1366
Epoch Orbit627
Epoch Day149.25001157
Epoch Year2020
RAAN224.657
Inclination52.9993
Eccentricity0.0001181
Argument of Perigee85.17
Mean Anonmoly180.7876
Mean Motion15.62755773
Decay Rate2.349E-05
L11 45569U 20025AQ 20149.25001157 .00002349 00000-0 31472-4 0 9994
L22 45569 52.9993 224.6570 0001181 85.1700 180.7876 15.62755773 6276

Live tracking and technical data element details for STARLINK-1366 (NORAD 45569). STARLINK-1366 can be tracked NOW for your location showing map with azimuth and elevation plus other details from your city location.

Track the satellite on the map from your city or location and see movement details for azimuth, elevation, latitude, longitude, range, height, and movement on the map or in text.







IsCatalogInMostPopularTable: catalog: 45569, numindb: 11
Update: records affected: 1



GetName: 45569 STARLINK-1366

Hit Count: updated at: Sat, 30 May 2020 14:31:00 GMT